Time,TemperatureF,DewpointF,PressureIn,WindDirection,WindDirectionDegrees,WindSpeedMPH,WindSpeedGustMPH,Humidity,HourlyPrecipIn,Conditions,Clouds,dailyrainin,SolarRadiationWatts/m^2,SoftwareType,DateUTC
2013-07-04 00:01:00,50.0,36.0,-100.00,NNW,336,5.0,9.0,59,0.00,,,0.00,0.000000,,2013-07-04 06:01:00,
2013-07-04 00:34:00,48.0,36.0,-100.00,NW,319,3.0,8.0,64,0.00,,,0.00,0.000000,,2013-07-04 06:34:00,
2013-07-04 00:43:00,48.0,36.0,-100.00,NW,319,3.0,8.0,64,0.00,,,0.00,0.000000,,2013-07-04 06:43:00,
2013-07-04 00:53:00,48.0,36.0,-100.00,NW,319,3.0,8.0,64,0.00,,,0.00,0.000000,,2013-07-04 06:53:00,
2013-07-04 01:02:00,48.0,36.0,-100.00,NW,319,3.0,8.0,64,0.00,,,0.00,0.000000,,2013-07-04 07:02:00,
2013-07-04 01:34:00,48.0,37.0,-100.00,NNW,336,4.0,7.0,66,0.00,,,0.00,0.000000,,2013-07-04 07:34:00,
2013-07-04 01:43:00,48.0,37.0,-100.00,NNW,336,4.0,7.0,66,0.00,,,0.00,0.000000,,2013-07-04 07:43:00,
2013-07-04 01:52:00,48.0,37.0,-100.00,NNW,336,4.0,7.0,66,0.00,,,0.00,0.000000,,2013-07-04 07:52:00,
2013-07-04 02:02:00,48.0,37.0,-100.00,NNW,336,4.0,7.0,66,0.00,,,0.00,0.000000,,2013-07-04 08:02:00,
2013-07-04 02:33:00,46.0,36.0,-100.00,NNW,336,3.0,10.0,69,0.00,,,0.00,0.000000,,2013-07-04 08:33:00,
2013-07-04 02:43:00,46.0,36.0,-100.00,NNW,336,3.0,10.0,69,0.00,,,0.00,0.000000,,2013-07-04 08:43:00,
2013-07-04 02:53:00,46.0,36.0,-100.00,NNW,336,3.0,10.0,69,0.00,,,0.00,0.000000,,2013-07-04 08:53:00,
2013-07-04 03:02:00,46.0,36.0,-100.00,NNW,336,3.0,10.0,69,0.00,,,0.00,0.000000,,2013-07-04 09:02:00,
2013-07-04 03:33:00,45.0,36.0,-100.00,NW,324,5.0,7.0,71,0.00,,,0.00,0.000000,,2013-07-04 09:33:00,
2013-07-04 03:42:00,45.0,36.0,-100.00,NW,324,5.0,7.0,71,0.00,,,0.00,0.000000,,2013-07-04 09:42:00,
2013-07-04 03:52:00,45.0,36.0,-100.00,NW,324,5.0,7.0,71,0.00,,,0.00,0.000000,,2013-07-04 09:52:00,
2013-07-04 04:01:00,45.0,36.0,-100.00,NW,324,5.0,7.0,71,0.00,,,0.00,0.000000,,2013-07-04 10:01:00,
2013-07-04 04:34:00,45.0,36.0,-100.00,NNW,330,5.0,8.0,70,0.00,,,0.00,0.000000,,2013-07-04 10:34:00,
2013-07-04 04:43:00,45.0,36.0,-100.00,NNW,330,5.0,8.0,70,0.00,,,0.00,0.000000,,2013-07-04 10:43:00,
2013-07-04 04:53:00,45.0,36.0,-100.00,NNW,330,5.0,8.0,70,0.00,,,0.00,0.000000,,2013-07-04 10:53:00,
2013-07-04 05:02:00,45.0,36.0,-100.00,NNW,330,5.0,8.0,70,0.00,,,0.00,0.000000,,2013-07-04 11:02:00,
2013-07-04 05:34:00,42.0,36.0,-100.00,North,351,2.0,6.0,79,0.00,,,0.00,0.000000,,2013-07-04 11:34:00,
2013-07-04 05:43:00,42.0,36.0,-100.00,North,351,2.0,6.0,79,0.00,,,0.00,0.000000,,2013-07-04 11:43:00,
2013-07-04 05:53:00,42.0,36.0,-100.00,North,351,2.0,6.0,79,0.00,,,0.00,0.000000,,2013-07-04 11:53:00,
2013-07-04 06:02:00,42.0,36.0,-100.00,North,351,2.0,6.0,79,0.00,,,0.00,0.000000,,2013-07-04 12:02:00,
2013-07-04 06:33:00,42.0,36.0,-100.00,NW,325,3.0,4.0,78,0.00,,,0.00,9.000000,,2013-07-04 12:33:00,
2013-07-04 06:43:00,42.0,36.0,-100.00,NW,325,3.0,4.0,78,0.00,,,0.00,9.000000,,2013-07-04 12:43:00,
2013-07-04 06:52:00,42.0,36.0,-100.00,NW,325,3.0,4.0,78,0.00,,,0.00,9.000000,,2013-07-04 12:52:00,
2013-07-04 07:02:00,42.0,36.0,-100.00,NW,325,3.0,4.0,78,0.00,,,0.00,9.000000,,2013-07-04 13:02:00,
2013-07-04 07:33:00,49.0,37.0,-100.00,NNW,335,2.0,5.0,64,0.00,,,0.00,139.000000,,2013-07-04 13:33:00,
2013-07-04 07:43:00,49.0,37.0,-100.00,NNW,335,2.0,5.0,64,0.00,,,0.00,139.000000,,2013-07-04 13:43:00,
2013-07-04 07:53:00,49.0,37.0,-100.00,NNW,335,2.0,5.0,64,0.00,,,0.00,139.000000,,2013-07-04 13:53:00,
2013-07-04 08:02:00,49.0,37.0,-100.00,NNW,335,2.0,5.0,64,0.00,,,0.00,139.000000,,2013-07-04 14:02:00,
2013-07-04 08:33:00,55.0,38.0,-100.00,NNE,14,3.0,5.0,52,0.00,,,0.00,317.000000,,2013-07-04 14:33:00,
2013-07-04 08:43:00,55.0,38.0,-100.00,NNE,14,3.0,5.0,52,0.00,,,0.00,317.000000,,2013-07-04 14:43:00,
2013-07-04 08:53:00,55.0,38.0,-100.00,NNE,14,3.0,5.0,52,0.00,,,0.00,317.000000,,2013-07-04 14:53:00,
2013-07-04 09:02:00,55.0,38.0,-100.00,NNE,14,3.0,5.0,52,0.00,,,0.00,317.000000,,2013-07-04 15:02:00,
2013-07-04 09:33:00,62.0,38.0,-100.00,North,353,3.0,5.0,41,0.00,,,0.00,555.000000,,2013-07-04 15:33:00,
2013-07-04 09:43:00,62.0,38.0,-100.00,North,353,3.0,5.0,41,0.00,,,0.00,555.000000,,2013-07-04 15:43:00,
2013-07-04 09:53:00,62.0,38.0,-100.00,North,353,3.0,5.0,41,0.00,,,0.00,555.000000,,2013-07-04 15:53:00,
2013-07-04 10:02:00,62.0,38.0,-100.00,North,353,3.0,5.0,41,0.00,,,0.00,555.000000,,2013-07-04 16:02:00,
2013-07-04 10:33:00,67.0,35.0,-100.00,NE,36,6.0,12.0,30,0.00,,,0.00,803.000000,,2013-07-04 16:33:00,
2013-07-04 10:43:00,67.0,35.0,-100.00,NE,36,6.0,12.0,30,0.00,,,0.00,803.000000,,2013-07-04 16:43:00,
2013-07-04 10:52:00,67.0,35.0,-100.00,NE,36,6.0,12.0,30,0.00,,,0.00,803.000000,,2013-07-04 16:52:00,
2013-07-04 11:01:00,67.0,35.0,-100.00,NE,36,6.0,12.0,30,0.00,,,0.00,803.000000,,2013-07-04 17:01:00,
2013-07-04 11:34:00,70.0,34.0,-100.00,NNE,31,4.0,11.0,26,0.00,,,0.00,883.000000,,2013-07-04 17:34:00,
2013-07-04 11:43:00,70.0,34.0,-100.00,NNE,31,4.0,11.0,26,0.00,,,0.00,883.000000,,2013-07-04 17:43:00,
2013-07-04 11:53:00,70.0,34.0,-100.00,NNE,31,4.0,11.0,26,0.00,,,0.00,883.000000,,2013-07-04 17:53:00,
2013-07-04 12:01:00,70.0,34.0,-100.00,NNE,31,4.0,11.0,26,0.00,,,0.00,883.000000,,2013-07-04 18:01:00,
2013-07-04 12:33:00,73.0,30.0,-100.00,NNE,31,5.0,12.0,20,0.00,,,0.00,1097.000000,,2013-07-04 18:33:00,
2013-07-04 12:43:00,73.0,30.0,-100.00,NNE,31,5.0,12.0,20,0.00,,,0.00,1097.000000,,2013-07-04 18:43:00,
2013-07-04 12:52:00,73.0,30.0,-100.00,NNE,31,5.0,12.0,20,0.00,,,0.00,1097.000000,,2013-07-04 18:52:00,
2013-07-04 13:01:00,73.0,30.0,-100.00,NNE,31,5.0,12.0,20,0.00,,,0.00,1097.000000,,2013-07-04 19:01:00,
2013-07-04 13:34:00,73.0,27.0,-100.00,NE,51,5.0,14.0,18,0.00,,,0.00,1020.000000,,2013-07-04 19:34:00,
2013-07-04 13:43:00,73.0,27.0,-100.00,NE,51,5.0,14.0,18,0.00,,,0.00,1020.000000,,2013-07-04 19:43:00,
2013-07-04 13:53:00,73.0,27.0,-100.00,NE,51,5.0,14.0,18,0.00,,,0.00,1020.000000,,2013-07-04 19:53:00,
2013-07-04 14:01:00,73.0,27.0,-100.00,NE,51,5.0,14.0,18,0.00,,,0.00,1020.000000,,2013-07-04 20:01:00,
2013-07-04 14:34:00,76.0,28.0,-100.00,North,360,4.0,15.0,17,0.00,,,0.00,1099.000000,,2013-07-04 20:34:00,
2013-07-04 14:42:00,76.0,28.0,-100.00,North,360,4.0,15.0,17,0.00,,,0.00,1099.000000,,2013-07-04 20:42:00,
2013-07-04 14:53:00,76.0,28.0,-100.00,North,360,4.0,15.0,17,0.00,,,0.00,1099.000000,,2013-07-04 20:53:00,
2013-07-04 15:01:00,76.0,28.0,-100.00,North,360,4.0,15.0,17,0.00,,,0.00,1099.000000,,2013-07-04 21:01:00,
2013-07-04 15:32:00,77.0,27.0,-100.00,NNE,14,7.0,19.0,16,0.00,,,0.00,1125.000000,,2013-07-04 21:32:00,
2013-07-04 15:43:00,77.0,27.0,-100.00,NNE,14,7.0,19.0,16,0.00,,,0.00,1125.000000,,2013-07-04 21:43:00,
2013-07-04 15:53:00,77.0,27.0,-100.00,NNE,14,7.0,19.0,16,0.00,,,0.00,1125.000000,,2013-07-04 21:53:00,
2013-07-04 16:01:00,77.0,27.0,-100.00,NNE,14,7.0,19.0,16,0.00,,,0.00,1125.000000,,2013-07-04 22:01:00,
2013-07-04 16:33:00,76.0,25.0,-100.00,NNE,21,7.0,16.0,15,0.00,,,0.00,692.000000,,2013-07-04 22:33:00,
2013-07-04 16:43:00,76.0,25.0,-100.00,NNE,21,7.0,16.0,15,0.00,,,0.00,692.000000,,2013-07-04 22:43:00,
2013-07-04 16:52:00,76.0,25.0,-100.00,NNE,21,7.0,16.0,15,0.00,,,0.00,692.000000,,2013-07-04 22:52:00,
2013-07-04 17:01:00,76.0,25.0,-100.00,NNE,21,7.0,16.0,15,0.00,,,0.00,692.000000,,2013-07-04 23:01:00,
2013-07-04 17:33:00,77.0,26.0,-100.00,North,6,5.0,16.0,15,0.00,,,0.00,754.000000,,2013-07-04 23:33:00,
2013-07-04 17:43:00,77.0,26.0,-100.00,North,6,5.0,16.0,15,0.00,,,0.00,754.000000,,2013-07-04 23:43:00,
2013-07-04 17:52:00,77.0,26.0,-100.00,North,6,5.0,16.0,15,0.00,,,0.00,754.000000,,2013-07-04 23:52:00,
2013-07-04 18:01:00,77.0,26.0,-100.00,North,6,5.0,16.0,15,0.00,,,0.00,754.000000,,2013-07-05 00:01:00,
2013-07-04 18:32:00,76.0,25.0,-100.00,South,184,6.0,15.0,15,0.00,,,0.00,732.000000,,2013-07-05 00:32:00,
2013-07-04 18:43:00,76.0,25.0,-100.00,South,184,6.0,15.0,15,0.00,,,0.00,732.000000,,2013-07-05 00:43:00,
2013-07-04 18:52:00,76.0,25.0,-100.00,South,184,6.0,15.0,15,0.00,,,0.00,732.000000,,2013-07-05 00:52:00,
2013-07-04 19:01:00,76.0,25.0,-100.00,South,184,6.0,15.0,15,0.00,,,0.00,732.000000,,2013-07-05 01:01:00,
2013-07-04 19:32:00,68.0,36.0,-100.00,East,94,5.0,13.0,31,-99.99,,,0.00,198.000000,,2013-07-05 01:32:00,
2013-07-04 19:42:00,68.0,36.0,-100.00,East,94,5.0,13.0,31,-99.99,,,0.00,198.000000,,2013-07-05 01:42:00,
2013-07-04 19:52:00,68.0,36.0,-100.00,East,94,5.0,13.0,31,-99.99,,,0.00,198.000000,,2013-07-05 01:52:00,
2013-07-04 20:02:00,68.0,36.0,-100.00,East,94,5.0,13.0,31,-99.99,,,0.00,198.000000,,2013-07-05 02:02:00,
2013-07-04 20:32:00,61.0,40.0,-100.00,SE,139,8.0,16.0,45,0.00,,,0.00,66.000000,,2013-07-05 02:32:00,
2013-07-04 20:43:00,61.0,40.0,-100.00,SE,139,8.0,16.0,45,0.00,,,0.00,66.000000,,2013-07-05 02:43:00,
2013-07-04 20:52:00,61.0,40.0,-100.00,SE,139,8.0,16.0,45,0.00,,,0.00,66.000000,,2013-07-05 02:52:00,
2013-07-04 21:02:00,61.0,40.0,-100.00,SE,139,8.0,16.0,45,0.00,,,0.00,66.000000,,2013-07-05 03:02:00,
2013-07-04 21:33:00,56.0,42.0,-100.00,ENE,75,3.0,15.0,59,0.00,,,0.00,5.000000,,2013-07-05 03:33:00,
2013-07-04 21:42:00,56.0,42.0,-100.00,ENE,75,3.0,15.0,59,0.00,,,0.00,5.000000,,2013-07-05 03:42:00,
2013-07-04 21:52:00,56.0,42.0,-100.00,ENE,75,3.0,15.0,59,0.00,,,0.00,5.000000,,2013-07-05 03:52:00,
2013-07-04 22:01:00,56.0,42.0,-100.00,ENE,75,3.0,15.0,59,0.00,,,0.00,5.000000,,2013-07-05 04:01:00,
2013-07-04 22:33:00,53.0,41.0,-100.00,WNW,303,3.0,7.0,63,0.00,,,0.00,0.000000,,2013-07-05 04:33:00,
2013-07-04 22:43:00,53.0,41.0,-100.00,WNW,303,3.0,7.0,63,0.00,,,0.00,0.000000,,2013-07-05 04:43:00,
2013-07-04 22:53:00,53.0,41.0,-100.00,WNW,303,3.0,7.0,63,0.00,,,0.00,0.000000,,2013-07-05 04:53:00,
2013-07-04 23:01:00,53.0,41.0,-100.00,WNW,303,3.0,7.0,63,0.00,,,0.00,0.000000,,2013-07-05 05:01:00,
2013-07-04 23:33:00,50.0,39.0,-100.00,North,2,2.0,4.0,65,0.00,,,0.00,0.000000,,2013-07-05 05:33:00,
2013-07-04 23:43:00,50.0,39.0,-100.00,North,2,2.0,4.0,65,0.00,,,0.00,0.000000,,2013-07-05 05:43:00,
2013-07-04 23:52:00,50.0,39.0,-100.00,North,2,2.0,4.0,65,0.00,,,0.00,0.000000,,2013-07-05 05:52:00,